This is the latest recevied weather packets stored in our database for station/object KC5L-7. If no packets are shown the sender has not sent any weather packets the latest 1 day(s).
| Time | Temp. | Humidity | Pressure | Rain* | Wind** | Luminosity | Snow |
|---|---|---|---|---|---|---|---|
| 1777981880 | 20.56° C | 89% | 1006.4 hPa | 0 mm | 1.34 m/s, 183° | - | - |
| 1777981279 | 20.56° C | 89% | 1006.4 hPa | 0 mm | 1.34 m/s, 181° | - | - |
| 1777980680 | 20.56° C | 89% | 1006.2 hPa | 0 mm | 0.89 m/s, 186° | - | - |
| 1777980080 | 20.56° C | 89% | 1006.3 hPa | 0 mm | 0.45 m/s, 182° | - | - |
| 1777979479 | 20.56° C | 89% | 1006.2 hPa | 0 mm | 0.45 m/s, 183° | - | - |
| 1777978880 | 20.56° C | 89% | 1006.3 hPa | 0 mm | 0.45 m/s, 184° | - | - |
| 1777977680 | 20.56° C | 89% | 1006.2 hPa | 0 mm | 0.45 m/s, 190° | - | - |
| 1777977080 | 20.56° C | 89% | 1006.2 hPa | 0 mm | 0.45 m/s, 185° | - | - |
| 1777976480 | 20.56° C | 89% | 1006.3 hPa | 0 mm | 0.45 m/s, 179° | - | - |
| 1777975880 | 20.56° C | 88% | 1006.4 hPa | 0 mm | 0.45 m/s, 187° | - | - |
| 1777975279 | 21.11° C | 88% | 1006.3 hPa | 0 mm | 0.89 m/s, 182° | - | - |
| 1777974680 | 21.11° C | 88% | 1006.5 hPa | 0 mm | 0.89 m/s, 184° | - | - |
| 1777974080 | 21.11° C | 88% | 1006.5 hPa | 0 mm | 0.45 m/s, 187° | - | - |
| 1777973480 | 21.11° C | 88% | 1006.7 hPa | 0 mm | 0.89 m/s, 180° | - | - |
| 1777972880 | 21.11° C | 88% | 1006.6 hPa | 0 mm | 0.89 m/s, 188° | - | - |
| 1777972280 | 21.11° C | 87% | 1006.6 hPa | 0 mm | 0.89 m/s, 188° | - | - |
| 1777971680 | 21.11° C | 86% | 1006.6 hPa | 0 mm | 0 m/s | - | - |
| 1777971079 | 21.11° C | 86% | 1006.6 hPa | 0 mm | 0.45 m/s, 180° | - | - |
| 1777970480 | 21.11° C | 86% | 1006.6 hPa | 0 mm | 0.45 m/s, 186° | - | - |
| 1777969880 | 21.11° C | 86% | 1006.8 hPa | 0 mm | 0.45 m/s, 187° | - | - |
| 1777969280 | 21.11° C | 86% | 1007.1 hPa | 0 mm | 0.45 m/s, 184° | - | - |
| 1777968080 | 21.67° C | 85% | 1007.2 hPa | 0 mm | 0.89 m/s, 189° | - | - |
| 1777967480 | 21.67° C | 85% | 1007.3 hPa | 0 mm | 0.89 m/s, 186° | - | - |
| 1777966880 | 21.67° C | 85% | 1007.4 hPa | 0 mm | 0.89 m/s, 185° | - | - |
| 1777966280 | 21.67° C | 85% | 1007.6 hPa | 0 mm | 0.89 m/s, 186° | - | - |
* Rain latest hour (hover to see other rain measurements)
** Current wind speed in m/s (hover to see current wind gust speed)